Flag for Switzerland Weather past 2 weeks in Geneva, Geneva, Switzerland

Now
70 °F

Mild.


Feels Like: 75 °F
Forecast: 60 / 77 °F
Wind: 3 mph from West

Location: Geneve-Cointrin

Current Time: Jul 22, 2014 at 4:35:01 PM

Latest Report: Jul 22, 2014 at 3:00 PM


Visibility: N/A

Pressure: 29.96 "Hg

Humidity: 67%

Dew point: 58 °F

Location of GenevaLocation

Historic Weather in Geneva — Graph

°F

Geneva temperature yesterday

Maximum temperature yesterday: 64 °F (at 3:00 PM)
Minimum temperature yesterday: 58 °F (at 8:00 AM)
Average temperature yesterday: 60 °F

Past Weeks' High & Low Weather Summary

 TemperatureHumidityPressure
High87 °F (Jul 18, 6:00 PM)95% (Jul 22, 4:00 AM)30.19 "Hg (Jul 22, 4:00 AM)
Low52 °F (Jul 10, 3:00 AM)25% (Jul 18, 6:00 PM)29.82 "Hg (Jul 19, 8:00 PM)
Average65 °F77%29.99 "Hg
* Reported Jul 7 3:00 PM — Jul 22 3:00 PM, Geneva, Weather by CustomWeather, © 2014

Note: Actual official high and low records may vary slightly from our data, if they occured in-between our weather recording intervals... More about our weather records

Advertising

Geneva weather history for previous 24 hours

 ConditionsComfort  
Time TempWeatherWind HumidityBarometerVisibility
3:00 PM
Jul 22
70 °FMild.3 mph67%29.96 "HgN/A
2:00 PM70 °FOvercast.2 mph64%29.96 "Hg31 mi
1:00 PM69 °FMild.5 mph73%29.97 "HgN/A
12:00 PM66 °FMild.3 mph79%29.98 "HgN/A
11:00 AM65 °FOvercast.2 mph89%29.98 "Hg31 mi
10:00 AM64 °FMild.2 mph87%29.98 "HgN/A
9:00 AM64 °FMild.3 mph92%29.98 "HgN/A
8:00 AM63 °FFog.2 mph92%29.97 "Hg9 mi
7:00 AM62 °FMild.1 mph93%29.97 "HgN/A
6:00 AM62 °FCool.2 mph94%29.96 "HgN/A
5:00 AM62 °FLow clouds.2 mph93%29.96 "Hg7 mi
4:00 AM62 °FCool.No wind95%29.96 "HgN/A
3:00 AM62 °FCool.2 mph94%29.97 "HgN/A
2:00 AM62 °FLow clouds.3 mph92%29.98 "Hg12 mi
1:00 AM62 °FCool.2 mph93%29.99 "HgN/A
12:00 AM62 °FCool.2 mph93%30.00 "HgN/A
11:00 PM
Jul 21
62 °FLow clouds.5 mph90%30.01 "Hg16 mi
10:00 PM62 °FCool.5 mph90%30.01 "HgN/A
9:00 PM63 °FMild.3 mph91%30.01 "HgN/A
8:00 PM63 °FPartly sunny.3 mph88%30.00 "Hg12 mi
7:00 PM64 °FMild.3 mph87%29.99 "HgN/A
6:00 PM63 °FMild.6 mph90%29.99 "HgN/A
5:00 PM63 °FRain. Low clouds.5 mph86%30.00 "Hg6 mi
4:00 PM63 °FMild.3 mph88%29.98 "HgN/A
Weather by CustomWeather, © 2014

See weather overviewHow to use our weather pages